GW6108 Weather Reports


time (UTC)temp
C
wind
direction
speed
KPH
gust
KPH
rain 1hr
cm
rain 24hr
cm
rain mn
cm
humidity
%
barometer
mb
20260505214503 8 23 4.8 9.7 0.00 0.00 0.00 78 1014.4
20260505213003 8 37 4.8 14.5 0.00 0.00 0.00 79 1014.5
20260505211716 8 37 4.8 14.5 0.00 0.00 0.00 81 1014.4
20260505210003 8 350 3.2 6.4 0.00 0.00 0.00 81 1014.3
20260505204503 8 324 0.0 3.2 0.00 0.00 0.00 81 1014.2
20260505203003 8 0 0.0 3.2 0.00 0.00 0.00 81 1014.1
20260505201503 9 357 1.6 3.2 0.00 0.00 0.00 78 1014.0
20260505200004 9 12 0.0 3.2 0.00 0.00 0.00 78 1014.0
20260505194503 9 6 3.2 8.0 0.00 0.00 0.00 76 1013.9
20260505193003 10 13 4.8 12.9 0.00 0.00 0.00 75 1013.8
20260505191503 10 11 4.8 12.9 0.00 0.00 0.00 75 1013.8
20260505190218 10 1 8.0 17.7 0.00 0.00 0.00 74 1013.7
20260505184503 10 352 9.7 14.5 0.00 0.00 0.00 75 1013.7
20260505183003 10 359 9.7 14.5 0.00 0.00 0.00 74 1013.6
20260505181503 10 8 8.0 14.5 0.00 0.00 0.00 74 1013.7
20260505180003 10 350 6.4 12.9 0.00 0.00 0.00 74 1013.7
20260505174503 10 16 4.8 11.3 0.00 0.00 0.00 74 1013.7
20260505173003 10 27 6.4 12.9 0.00 0.00 0.00 72 1013.7
20260505171503 10 28 3.2 19.3 0.00 0.00 0.00 74 1013.8
20260505170003 10 352 11.3 19.3 0.00 0.00 0.00 72 1013.8
20260505164503 10 350 16.1 20.9 0.00 0.00 0.00 74 1013.9
20260505163003 11 358 14.5 22.5 0.00 0.00 0.00 72 1013.9
20260505161503 11 357 16.1 19.3 0.00 0.00 0.00 71 1013.9
20260505153003 12 9 9.7 17.7 0.00 0.00 0.00 68 1013.9
20260505151503 11 1 16.1 20.9 0.00 0.00 0.00 68 1013.9
20260505124503 11 356 6.4 16.1 0.00 0.00 0.00 71 1014.3
20260505123003 10 1 12.9 20.9 0.00 0.00 0.00 72 1014.4
20260505121503 10 356 17.7 24.1 0.00 0.00 0.00 74 1014.4
20260505120003 11 20 8.0 14.5 0.00 0.00 0.00 71 1014.4
20260505114503 11 34 8.0 17.7 0.00 0.00 0.00 70 1014.4
20260505113217 11 47 11.3 17.7 0.00 0.00 0.00 68 1014.6
20260505111503 11 14 9.7 17.7 0.00 0.00 0.00 71 1014.6
20260505101503 11 351 12.9 22.5 0.00 0.00 0.00 67 1014.7
20260505100218 11 349 14.5 17.7 0.00 0.00 0.00 64 1014.6
20260505094717 11 8 11.3 20.9 0.00 0.00 0.00 63 1014.7
20260505093003 11 37 9.7 22.5 0.00 0.00 0.00 66 1014.6
20260505091503 11 2 20.9 30.6 0.00 0.00 0.00 66 1014.6
20260505090004 11 4 14.5 25.7 0.00 0.00 0.00 67 1014.7
20260505084503 11 21 8.0 17.7 0.00 0.00 0.00 66 1014.6
20260505083003 11 38 9.7 19.3 0.00 0.00 0.00 66 1014.8
20260505081503 11 13 12.9 20.9 0.00 0.00 0.00 70 1014.9
20260505080218 10 6 12.9 22.5 0.00 0.00 0.00 71 1014.9
20260505074503 10 5 12.9 24.1 0.00 0.00 0.00 72 1014.8
20260505073003 10 360 14.5 19.3 0.00 0.00 0.00 71 1015.0
20260505071503 10 354 12.9 20.9 0.00 0.00 0.00 71 1015.0
20260505070003 9 338 8.0 12.9 0.00 0.00 0.00 72 1015.0
20260505064503 8 329 4.8 12.9 0.00 0.00 0.00 74 1015.0
20260505063003 8 5 3.2 4.8 0.00 0.00 0.00 76 1014.9
20260505061503 7 8 3.2 4.8 0.00 0.00 0.00 79 1014.8
20260505060217 7 15 1.6 11.3 0.00 0.00 0.00 82 1014.8
20260505054503 6 0 0.0 0.0 0.00 0.00 0.00 86 1014.7
20260505053219 6 0 0.0 0.0 0.00 0.00 0.00 85 1014.7
20260505051503 6 0 0.0 0.0 0.00 0.00 0.00 85 1014.8
20260505041503 8 10 1.6 8.0 0.00 0.00 0.00 85 1014.6
20260505040216 7 309 4.8 8.0 0.00 0.00 0.00 88 1014.5
20260505034503 7 0 0.0 0.0 0.00 0.00 0.00 89 1014.5
20260505033003 7 0 0.0 0.0 0.00 0.00 0.00 89 1014.6
20260505031503 7 0 0.0 0.0 0.00 0.00 0.00 89 1014.6
20260505030003 7 194 0.0 1.6 0.00 0.00 0.00 89 1014.7
20260505024503 7 0 0.0 1.6 0.00 0.00 0.00 89 1014.6
20260505023003 7 80 1.6 3.2 0.00 0.00 0.00 91 1014.6
20260505021503 7 0 0.0 3.2 0.00 0.00 0.00 91 1014.8
20260505020003 7 126 1.6 3.2 0.00 0.00 0.00 91 1014.8
20260505014503 7 102 0.0 3.2 0.00 0.00 0.00 92 1015.0
20260505013003 7 85 0.0 3.2 0.00 0.00 0.00 91 1015.1
20260505011503 7 78 0.0 1.6 0.00 0.00 0.00 91 1015.2
20260505010003 7 43 1.6 6.4 0.00 0.00 0.00 92 1015.2
20260505004503 7 51 3.2 6.4 0.00 0.00 0.00 92 1015.4
20260505003003 7 0 0.0 3.2 0.00 0.00 0.00 91 1015.5
20260505001503 7 20 0.0 3.2 0.00 0.00 0.00 91 1015.6
20260505000003 8 68 1.6 4.8 0.00 0.00 0.00 92 1015.7
20260504234503 8 77 0.0 1.6 0.00 0.00 0.00 92 1015.7
20260504233217 8 12 1.6 3.2 0.00 0.00 0.00 94 1015.8
20260504231715 8 143 0.0 3.2 0.00 0.00 0.00 94 1015.8
20260504230218 8 126 1.6 3.2 0.00 0.00 0.00 94 1015.8
20260504224503 8 117 0.0 3.2 0.00 0.00 0.00 94 1015.8
20260504223003 8 93 1.6 3.2 0.00 0.00 0.00 94 1015.9
20260504221503 9 53 1.6 4.8 0.00 0.00 0.00 94 1016.0
20260504220003 9 15 4.8 12.9 0.00 0.00 0.00 95 1016.0